, AK

(GMT )
Anchorage

Weather History for PANC - July, 2013

Change the Weather History Date:

Wednesday, July 24, 2013

  Actual Average Record
Temperature  
Mean Temperature 66 °F 59 °F  
Max Temperature 78 °F 66 °F 79 °F (2013)
Min Temperature 54 °F 53 °F 42 °F (1976)
Degree Days  
Heating Degree Days 0    
Month to date heating degree days 105  
Since 1 June heating degree days 289  
Since 1 July heating degree days 105  
Cooling Degree Days 1    
Month to date cooling degree days 10  
Year to date cooling degree days 17  
Since 1 June cooling degree days 17  
Growing Degree Days 16 (Base 50)    
Moisture  
Dew Point 53 °F    
Average Humidity 68    
Maximum Humidity 86    
Minimum Humidity 49    
Precipitation  
Precipitation 0.00 in 0.07 in 1.21 in (1969)
Month to date precipitation 1.05 1.32  
Year to date precipitation 7.89 5.53  
Snow  
Snow 0.00 in 0.00 in 0.00 in ()
Month to date snowfall 0.0 0.0  
Since 1 June snowfall 0.0 0.0  
Since 1 July snowfall 0.0 0.0  
Snow Depth 0.00 in    
Sea Level Pressure  
Sea Level Pressure 29.99 in    
Wind  
Wind Speed 3 mph (West)    
Max Wind Speed 6 mph    
Max Gust Speed -    
Visibility 10 miles    
Events      
T = Trace of Precipitation, MM = Missing Value Source: NWS Daily Summary

Daily Weather History Graph

Daily Weather History Graph

Search for Another Location

Airport or City:

Trip Planner

Search our weather history database for the weather conditions in past years. The results will help you decide how hot, cold, wet, or windy it might be!

Date:

Astronomy

Jul. 24, 2013 Rise Set
Actual Time 5:13 AM AKDT 10:57 PM AKDT
Civil Twilight 3:58 AM AKDT 12:11 AM AKDT
Nautical Twilight Sun does not rise Sun does not rise
Astronomical Twilight Sun does not rise Sun does not rise
Moon 10:51 PM AKDT (7/24) 8:52 AM AKDT (7/24)
Length of Visible Light 20h 12m
Length of Day
17h 43m
Waning Gibbous, 94% of the Moon is Illuminated
Jul 24
Waning Gibbous
Jul 29
Last Quarter
Aug 6
New
Aug 14
First Quarter
Aug 20
Full

Hourly Weather History & Observations

Time (AKDT) Temp. Dew Point Humidity Pressure Visibility Wind Dir Wind Speed Gust Speed Precip Events Conditions
12:53 AM 60.1 °F 51.1 °F 72% 30.04 in 10.0 mi Calm Calm - N/A   Scattered Clouds
1:53 AM 59.0 °F 52.0 °F 78% 30.04 in 10.0 mi SE 3.5 mph - N/A   Scattered Clouds
2:53 AM 57.0 °F 52.0 °F 83% 30.04 in 10.0 mi South 4.6 mph - N/A   Scattered Clouds
3:53 AM 55.9 °F 52.0 °F 87% 30.04 in 10.0 mi South 4.6 mph - N/A   Scattered Clouds
4:53 AM 55.9 °F 52.0 °F 87% 30.03 in 10.0 mi South 4.6 mph - N/A   Scattered Clouds
5:53 AM 57.0 °F 52.0 °F 83% 30.03 in 10.0 mi Calm Calm - N/A   Scattered Clouds
6:53 AM 57.9 °F 52.0 °F 81% 30.03 in 10.0 mi Calm Calm - N/A   Scattered Clouds
7:53 AM 64.0 °F 53.1 °F 67% 30.02 in 10.0 mi Calm Calm - N/A   Scattered Clouds
8:53 AM 66.0 °F 53.1 °F 63% 30.01 in 10.0 mi Calm Calm - N/A   Scattered Clouds
9:53 AM 68.0 °F 55.9 °F 65% 30.01 in 10.0 mi NNW 3.5 mph - N/A   Scattered Clouds
10:53 AM 68.0 °F 55.0 °F 63% 30.01 in 10.0 mi NW 4.6 mph - N/A   Scattered Clouds
11:53 AM 70.0 °F 55.0 °F 59% 30.00 in 10.0 mi WNW 5.8 mph - N/A   Scattered Clouds
12:53 PM 72.0 °F 54.0 °F 53% 29.99 in 10.0 mi NW 4.6 mph - N/A   Partly Cloudy
1:53 PM 73.9 °F 54.0 °F 50% 29.99 in 10.0 mi NNW 4.6 mph - N/A   Partly Cloudy
2:53 PM 75.9 °F 54.0 °F 46% 29.97 in 10.0 mi WNW 4.6 mph - N/A   Scattered Clouds
3:53 PM 77.0 °F 55.9 °F 48% 29.96 in 10.0 mi NW 3.5 mph - N/A   Scattered Clouds
4:53 PM 79.0 °F 55.9 °F 45% 29.95 in 10.0 mi WNW 5.8 mph - N/A   Scattered Clouds
5:53 PM 79.0 °F 54.0 °F 42% 29.94 in 10.0 mi West 6.9 mph - N/A   Scattered Clouds
6:53 PM 78.1 °F 52.0 °F 40% 29.93 in 10.0 mi West 5.8 mph - N/A   Scattered Clouds
7:53 PM 77.0 °F 51.1 °F 40% 29.93 in 10.0 mi West 5.8 mph - N/A   Scattered Clouds
8:53 PM 73.0 °F 51.1 °F 46% 29.93 in 10.0 mi WSW 6.9 mph - N/A   Mostly Cloudy
9:53 PM 66.9 °F 53.1 °F 61% 29.94 in 10.0 mi WSW 5.8 mph - N/A   Mostly Cloudy
10:53 PM 68.0 °F 51.1 °F 55% 29.94 in 10.0 mi SW 9.2 mph - N/A   Mostly Cloudy
11:53 PM 66.9 °F 53.1 °F 61% 29.94 in 10.0 mi South 5.8 mph - N/A   Mostly Cloudy